Zurück zum Katalog

DELTA 1 DEB

AktivSSO
NORAD 21326·DEBRIS·🇺🇸 United States

Gestartet Jun 12, 1975 von Vandenberg Space Force Base

Loading…

Nächste Überflüge (nächste 24 Stunden)

TLE

AktuellSource: Space-Track

Epoche: Sep 14, 2026, 13:18 UTC

1 21326U 75052AU  26257.55478105  .00000097  00000-0  24933-3 0  9990
2 21326  99.8122 143.2779 0030059 194.7543 284.4134 13.41891672727969

Verfolge DELTA 1 DEB in Echtzeit mit AllMySat

Download on the App Store